Regional Weather Roundup
Issued by NWS

Home | Current Version | Previous Version | Text Only | Print | Product List | Glossary Off
Versions: 1 2 3 4 5 6 7 8 9 10 11 12 13 14 15 16 17 18 19 20 21 22 23 24 25 26 27 28 29 30 31 32 33 34 35 36 37 38 39 40 41 42 43 44 45 46 47 48 49 50

000
ASUS43 KMPX 260710
RWRMN
WEATHER ROUNDUP FOR MINNESOTA
NATIONAL WEATHER SERVICE TWIN CITIES/CHANHASSEN MN
200 AM CDT TUE MAY 26 2015


NOTE: "FAIR" INDICATES FEW OR NO CLOUDS BELOW 12,000 FEET WITH NO
SIGNIFICANT WEATHER AND/OR OBSTRUCTIONS TO VISIBILITY. N/A MEANS
CURRENT SKY AND/OR WEATHER CONDITIONS ARE NOT AVAILABLE.

MNZ060>063-068>070-260800-
   Twin Cities Metro

CITY           SKY/WX    TMP DP  RH WIND       PRES   REMARKS
TWIN CITIES    MOCLDY    62  57  83 CALM      29.79R
ST PAUL        MOCLDY    60  58  92 NW3       29.79S
CRYSTAL        MOCLDY    58  56  93 SE3       29.78R
BLAINE         MOCLDY    57  57 100 S3        29.79R
LAKEVILLE      MOCLDY    57  57 100 CALM      29.80R
EDEN PRAIRIE   MOCLDY    59  56  89 W3        29.78R
SOUTH ST PAUL  MOCLDY    62  58  86 CALM      29.79S
LAKE ELMO      CLOUDY    59  59 100 CALM      29.80S
$$
MNZ001>005-007-008-013>017-022>024-027-028-260800-
   Northwest Minnesota

CITY           SKY/WX    TMP DP  RH WIND       PRES   REMARKS
BEMIDJI          N/A     49  49  99 NW6       29.85F FOG
HALLOCK        CLEAR     57  50  77 S13       29.80S
ROSEAU         CLEAR     55  50  82 S9        29.82F
WARROAD        CLEAR     55  52  88 S7        29.83S
THIEF RVR FALL CLEAR     52  48  87 S6        29.87S
CROOKSTON      CLEAR     54  50  87 S9        29.87S
FOSSTON        PTCLDY    46  45  93 CALM      29.88S FOG
DETROIT LAKES  PTCLDY    52  50  93 NW5       29.88S
MOORHEAD       CLEAR     52  48  87 CALM      29.88S
PARK RAPIDS    MOCLDY    50  49  96 CALM      29.84F FOG
MAHNOMEN       FAIR      48  48  97 W5        29.87S
$$
MNZ006-009>011-018-025>026-260800-
   North Central Minnesota

CITY           SKY/WX    TMP DP  RH WIND       PRES   REMARKS
BAUDETTE       PTCLDY    51  49  92 S5        29.84R
FLAG ISLAND    CLEAR     55  52  88 S9        29.80S
INTL FALLS     MOCLDY    51  50  96 CALM      29.85R
WASKISH        MOCLDY    52  48  87 CALM      29.86S
BIG FORK       CLOUDY    52  52 100 CALM      29.86R FOG
LONGVILLE      MOCLDY    54  52  94 N7        29.82F
GRAND RAPIDS   CLOUDY    54  48  82 N7        29.83S
CRANE LAKE     CLOUDY    48  48 100 CALM      29.85S FOG
ORR            CLOUDY    52  48  87 CALM      29.83R
COOK           CLOUDY    52  52 100 CALM      29.85R
WALKER         FAIR      52  50  95 N3        29.84F
$$
MNZ012-019>021-037-260800-
   Northeast Minnesota

CITY           SKY/WX    TMP DP  RH WIND       PRES   REMARKS
DULUTH         DRIZZLE   53  51  93 NE5       29.80F FOG
ELY            DRIZZLE   54  52  94 SE6       29.81S
HIBBING        CLOUDY    54  50  86 NE3       29.82S
EVELETH        DRIZZLE   52  50  93 CALM      29.83S
DULUTH HARBOR  DRIZZLE   46  45  93 CALM      29.81S
TWO HARBORS    CLOUDY    55  52  88 CALM      29.78F
GRAND MARAIS     N/A     49  49 100 CALM      29.79R
G MARAIS ARPRT DRIZZLE   50  46  87 N8        29.81R
$$
MNZ029>031-032-039>041-046>048-054>057-064-260800-
   West Central Minnesota

CITY           SKY/WX    TMP DP  RH WIND       PRES   REMARKS
FERGUS FALLS   CLEAR     52  52 100 N7        29.88R
WHEATON        PTCLDY    48  46  93 NW6       29.88F
MORRIS         PTCLDY    52  50  93 N10       29.82F
ALEXANDRIA     CLEAR     53  50  89 N9        29.82F
ELBOW LAKE     FAIR      52  50  94 NW7       29.86S
WADENA         PTCLDY    50  48  93 NW6       29.84S
GLENWOOD       CLOUDY    55  52  88 VRB8      29.82S
APPLETON       MOCLDY    55  52  88 N7        29.82S
BENSON         MOCLDY    55  52  88 N7        29.81F
ORTONVILLE     PTCLDY    54  48  82 N9        29.83F
MADISON        PTCLDY    54  50  87 NW6       29.82F
WILLMAR        CLOUDY    57  55  94 N7        29.81S
$$
MNZ033>034-036-042>043-049>051-058-059-260800-
   Central Minnesota

CITY           SKY/WX    TMP DP  RH WIND       PRES   REMARKS
ST CLOUD       CLOUDY    57  54  89 N9        29.79R
SAUK CENTRE    CLOUDY    55  52  89 N6        29.80F
PAYNESVILLE    CLOUDY    53  53  98 NW6       29.79F
AITKIN         CLOUDY    54  48  82 N3        29.79F
PINE RIVER     PTCLDY    52  52 100 CALM      29.86F
BRAINERD       CLOUDY    54  53  97 N6        29.81F
STAPLES        CLOUDY    54  52  94 N3        29.83S
LONG PRAIRIE   CLOUDY    54  52  94 N9        29.80F
LITTLE FALLS   CLOUDY    54  52  94 CALM      29.79F
LITCHFIELD     CLOUDY    57  57 100 NW3       29.80S
BUFFALO        PTCLDY    56  54  92 CALM      29.80R
MAPLE LAKE     CLOUDY    57  56  97 W3        29.80S
$$
MNZ037-044-045-052-053-260800-
   East Central Minnesota

CITY           SKY/WX    TMP DP  RH WIND       PRES   REMARKS
PRINCETON      CLOUDY    57  55  94 NW5       29.79R
MORA           CLOUDY    54  50  87 NE3       29.81R
CAMBRIDGE      MOCLDY    55  48  76 CALM      29.77R
RUSH CITY      MOCLDY    55  54  95 CALM      29.79R FOG
MOOSE LAKE     CLOUDY    50  50 100 CALM      29.79S
HINCKLEY       CLOUDY    50  50 100 N5        29.79S
CLOQUET        CLOUDY    52  52 100 CALM      29.80S
MCGREGOR       CLOUDY    54  52  94 CALM      29.81S
$$
MNZ071>073-080-081-089-090-097-098-260800-
   Southwest Minnesota

CITY           SKY/WX    TMP DP  RH WIND       PRES   REMARKS
MONTEVIDEO     CLOUDY    57  55  94 N5        29.81F
GRANITE FALLS  CLOUDY    57  53  87 NW6       29.81F
CANBY          CLOUDY    54  51  90 NW5       29.83F
MARSHALL       MOCLDY    54  48  82 NW8       29.81S
REDWOOD FALLS  PTCLDY    55  53  93 NW7       29.79F
OLIVIA         PTCLDY    52  50  93 N5        29.79F
PIPESTONE      MOCLDY    55  52  88 N8        29.80F
WINDOM         MOCLDY    57  54  88 W3        29.82S
WORTHINGTON    CLOUDY    55  52  88 NE6       29.80F
JACKSON        CLOUDY    59  55  88 N7        29.80F
TRACY          MOCLDY    55  54  95 NW6       29.81S
SLAYTON        DRIZZLE   55  55  99 CALM      29.82S
$$
MNZ065>067-074>077-082>085-091>093-260800-
   South Central Minnesota

CITY           SKY/WX    TMP DP  RH WIND       PRES   REMARKS
MANKATO        PTCLDY    61  55  82 NW5       29.80S
NEW ULM        MOCLDY    55  55 100 CALM      29.80S
ST JAMES       PTCLDY    57  57 100 NW3       29.81F
FAIRMONT       MOCLDY    61  55  82 NW6       29.79S
GLENCOE        PTCLDY    58  56  96 CALM      29.80R
FARIBAULT        N/A     59  57  94 CALM      29.81S FOG
OWATONNA       MOCLDY    59  57  94 CALM      29.80F
WASECA         MOCLDY    57  55  94 CALM      29.81F FOG
ALBERT LEA     MOCLDY    64  55  72 S6        29.81F
$$
MNZ078>079-086>088-094>096-260800-
   Southeast Minnesota

CITY           SKY/WX    TMP DP  RH WIND       PRES   REMARKS
ROCHESTER      CLOUDY    62  57  83 S13       29.84S
RED WING       MOCLDY    57  57 100 CALM      29.80R FOG
STANTON        PTCLDY    59  57  93 CALM      29.79S FOG
DODGE CENTER   MOCLDY    63  61  94 S10       29.83R
WINONA         LGT RAIN  70  61  73 SW12G25   29.84R
AUSTIN         CLOUDY    63  57  82 CALM      29.83F
PRESTON        LGT RAIN  61  55  82 CALM      29.82F
$$
ABBREVIATIONS USED IN REMARKS
   TC - TEMPERATURES IN CELSIUS
  WCI - WIND CHILL INDEX
   HX - HEAT INDEX
  VSB - VISIBILITY
$$



USA.gov is the U.S. government's official web portal to all federal, state and local government web resources and services.